Location: Cr�chat
(46.1437°N, 1.4786°E)
Time: 11:52:27
(UTC+00:00)

Daily predictions for brighter satellites

Satellite Brightness Start Highest point End
(mag) Time Altitude Azimuth Time Altitude Azimuth Time Altitude Azimuth
Cosmos 1867 3.7 16:32:28 10° SW 16:37:55 88° NW 16:43:25 10° NE
Envisat 3.0 16:37:19 10° SSE 16:42:21 69° ENE 16:47:25 10° N
Lacrosse 5 rocket 1.0 16:42:39 10° SW 16:46:20 80° NW 16:49:56 10° NE
Cosmos 773 Rocket 4.5 16:43:05 10° S 16:48:02 42° ESE 16:53:01 10° NE
YAOGAN 6 2.5 16:47:49 10° SSE 16:51:25 64° ENE 16:54:58 10° N
Cosmos 1606 2.7 16:49:46 10° S 16:53:39 88° E 16:57:33 10° N
Cosmos 962 Rocket 4.5 16:47:38 10° N 16:53:57 80° E 17:00:08 10° SSE
Cosmos 2297 3.7 16:48:22 10° NNW 16:54:06 84° ENE 16:59:49 10° SSE
OE (NEXTSAT) 4.3 16:51:29 10° W 16:54:57 90° S 16:58:26 10° E
AQUARIUS 4.4 16:52:19 10° SE 16:56:36 48° ENE 17:00:57 10° N
SL-16 R/B 2.2 16:52:15 10° SSW 16:57:53 77° ESE 17:03:34 10° NNE
CZ-4B R/B 2.8 16:56:27 10° NE 16:58:39 18° E 17:00:53 10° SE
Landsat 5 3.6 16:55:26 10° NNE 16:59:55 81° ESE 17:04:26 10° SSW
BREEZE-M DEB (TANK) 2.1 16:59:04 10° SW 17:01:54 53° SSE 17:03:26 14° E
SMAP 3.0 17:00:59 10° SSE 17:05:36 67° ENE 17:10:15 10° N
Sich 1 3.6 17:03:44 10° NNW 17:08:04 62° W 17:12:19 10° S
YAOGAN 1 4.2 17:09:18 13° ENE 17:09:42 14° ENE 17:11:50 10° NNE
CZ-4C R/B 3.4 17:07:19 10° N 17:10:56 67° WNW 17:14:30 10° SSW
Cosmos 1151 Rocket 3.0 17:07:53 10° S 17:12:05 61° E 17:16:18 10° NNE
Cosmos 1470 Rocket 3.8 17:08:49 10° N 17:12:58 43° ENE 17:17:05 10° SSE
Cosmos 864 Rocket 4.5 17:12:34 10° N 17:18:52 66° E 17:25:04 10° SSE
Cosmos 1515 Rocket 4.0 17:16:06 10° SSE 17:20:08 38° E 17:24:15 10° NNE
CZ-2C R/B 3.9 17:17:45 10° ESE 17:21:35 23° ENE 17:25:19 10° NNE
SL-8 Rocket 4.0 17:15:49 10° N 17:22:07 88° E 17:28:24 10° S
Cosmos 482 Debris 3.1 17:20:38 10° WNW 17:22:22 52° SSW 17:23:46 16° SE
Cosmos 2341 Rocket 4.4 17:17:21 10° NNW 17:23:39 71° W 17:29:57 10° S
Cosmos 1238 Rocket 4.2 17:21:58 10° NNE 17:25:06 21° ENE 17:28:39 10° ESE
TELKOM 3 4.1 17:23:00 10° WNW 17:25:33 33° N 17:26:18 26° NE
COSMO-SKYMED 1 3.4 17:23:06 13° NE 17:26:21 30° E 17:30:10 10° SSE
Cosmos 1959 Rocket 4.5 17:21:18 10° N 17:27:42 80° E 17:34:02 10° S
X-37B 1.2 17:24:45 10° WSW 17:27:49 47° SSE 17:29:28 23° E
USA 281 3.8 17:23:07 10° ESE 17:28:51 34° NE 17:34:36 10° N
USA 81 4.1 17:26:23 10° N 17:31:43 90° W 17:37:00 10° S
Cosmos 2228 Rocket 4.1 17:29:03 10° SE 17:32:49 27° E 17:34:29 21° NE
CORIOLIS 4.3 17:27:32 10° SSE 17:32:57 83° WSW 17:38:27 10° NNW
Helios 1A Rocket 4.1 17:33:25 22° NE 17:33:25 22° NE 17:36:11 10° NNE
Meteor 1-4 Rocket 2.4 17:30:27 10° S 17:34:01 73° E 17:37:26 11° NNE
Cosmos 2285 Rocket 4.4 17:27:53 10° NNW 17:34:15 69° WSW 17:40:30 10° S
H-2A R/B 3.1 17:35:18 21° E 17:36:29 23° ENE 17:40:24 10° NNE
Cosmos 1812 3.7 17:33:28 10° SE 17:36:35 25° E 17:36:35 25° E
Cosmos 1821 Rocket 4.3 17:31:48 10° N 17:37:44 43° ENE 17:43:42 10° SE
USA 267 3.8 17:34:11 19° ENE 17:38:26 42° NNE 17:44:30 10° NW
Cosmos 1939 Rocket 2.9 17:35:03 10° SSE 17:38:48 51° ENE 17:42:39 10° N
Cosmos 1328 Rocket 3.6 17:35:42 10° SSW 17:40:01 77° W 17:44:24 10° N
CZ-4 R/B 2.3 17:41:26 27° ENE 17:41:26 27° ENE 17:44:37 10° N
BREEZE-M DEB (TANK) 3.9 17:39:19 10° SSW 17:42:01 17° SSE 17:42:53 16° SE
Cosmos 44 Rocket 3.9 17:37:31 10° NNW 17:42:23 40° NE 17:45:09 23° E
Cosmos 1933 Rocket 3.5 17:38:38 10° N 17:43:05 62° E 17:47:29 10° SSE
IRS-1C Rocket 4.1 17:40:04 10° SE 17:45:13 55° ENE 17:50:22 10° N
Cosmos 1602 3.8 17:41:43 10° NNW 17:45:39 79° W 17:49:30 10° S
Cosmos 2181 Rocket 4.4 17:41:37 10° SSW 17:48:00 69° W 17:54:20 10° N
Lacrosse 4 Rocket 3.6 17:46:43 10° SE 17:46:59 11° SE 17:46:59 11° SE
NOAA 11 4.3 17:43:34 10° S 17:48:59 79° WSW 17:54:27 10° NNW
Cosmos 1680 Rocket 4.3 17:44:58 10° SSE 17:49:28 29° E 17:50:18 28° E
Cosmos 2237 Rocket 4.3 17:45:17 10° W 17:49:30 21° NW 17:53:45 10° N
CZ-4B R/B 4.1 17:45:11 10° S 17:50:19 49° W 17:55:28 10° NNW
SL-24 R/B 4.0 17:49:33 35° ENE 17:50:31 43° E 17:54:01 10° S
Cosmos 1603 3.7 17:47:59 10° S 17:53:30 59° ESE 17:56:56 23° NE
CZ-2D R/B 3.2 17:51:56 10° SSE 17:55:40 55° ENE 17:59:26 10° N
Cosmos 1943 3.3 17:51:22 10° S 17:56:52 55° ESE 17:59:58 26° NE
H-2A R/B 3.6 17:54:18 10° N 17:58:07 34° WNW 18:02:00 10° SW
Cosmos 2369 Rocket 2.2 17:53:07 10° NNW 17:58:50 83° WSW 18:04:28 10° SSE
Cosmos 1538 Rocket 4.1 17:53:38 10° SSW 17:59:00 83° WNW 18:03:44 14° NNE
Cosmos 1943 Rocket 3.1 17:54:39 10° NW 18:00:01 50° WSW 18:05:23 10° S
Meteor 1-14 Rocket 4.4 17:55:10 10° NNW 18:01:10 82° W 18:07:09 10° S
Meteor 1-5 Rocket 4.2 17:55:24 10° N 18:01:18 64° ENE 18:06:58 10° SSE
Cosmos 1782 3.4 17:58:32 10° SSW 18:02:26 58° W 18:06:24 10° N
Okean O Rocket 3.2 17:58:29 10° SSW 18:02:31 36° W 18:06:36 10° NNW
Cosmos 1461 4.5 17:59:55 10° SSE 18:02:44 23° SE 18:02:44 23° SE
Okean-O 2.7 17:59:46 10° SE 18:04:02 50° ENE 18:08:20 10° N
ISS -2.8 18:03:06 10° WNW 18:05:55 35° N 18:05:55 35° N
ARGOS 4.2 18:08:32 26° NNE 18:08:32 26° NNE 18:11:34 10° N
CENTAUR R/B 3.1 18:01:51 10° S 18:06:58 33° ESE 18:07:44 32° E
Cosmos 2056 Rocket 4.3 18:05:27 10° N 18:09:29 32° NE 18:09:29 32° NE
ERS-2 2.6 18:10:46 23° N 18:12:54 61° WNW 18:16:30 10° SSW
SKYMED 2 3.5 18:11:44 21° NNE 18:14:35 87° WNW 18:18:56 10° SSW
NOSS 3-2 (C) 3.9 18:10:01 10° S 18:15:01 35° ESE 18:15:09 35° ESE
Cosmos 1869 Rocket 3.5 18:13:22 10° N 18:22:43 - SSE 18:17:48 60° ENE
BREEZE-M DEB (TANK) 3.3 18:11:03 10° SW 18:19:27 56° SSE 18:19:59 51° ESE
Meteor 1-27 Rocket 4.2 18:16:05 10° SSE 18:20:11 38° ESE 18:20:11 38° ESE
Meteor 1-10 Rocket 4.0 18:20:01 10° S 18:25:37 75° E 18:28:50 26° NNE
Lacrosse 5 rocket 2.9 18:23:06 10° WNW 18:25:53 20° NNW 18:25:53 20° NNW
BREEZE-M DEB (TANK) 4.2 18:25:47 10° WNW 18:26:37 21° WNW 18:26:37 21° WNW
Cosmos 371 Rocket 4.0 18:24:38 10° NNW 18:28:01 39° NNE 18:28:01 39° NNE
CZ-4B R/B 3.5 18:29:34 18° NNW 18:30:54 24° WNW 18:33:30 10° SW
NOSS 3-2 (A) 3.2 18:34:28 10° SSW 18:40:07 83° SE 18:41:27 57° NE
SL-16 R/B 4.3 18:38:21 10° W 18:42:40 22° NW 18:46:57 10° N
YAOGAN 1 3.3 18:46:28 45° NNW 18:46:28 45° NNW 18:49:34 10° NNW
Cosmos 1535 Rocket 4.3 18:39:11 10° N 18:45:19 73° E 18:51:25 10° SSE
USA 215 3.1 18:46:42 58° ENE 18:48:04 77° SE 18:54:36 10° SW
Cosmos 1656 Rocket 4.3 18:48:20 10° NW 18:53:49 54° WSW 18:58:59 11° S
MOS 1 Rocket 3.7 18:52:43 48° N 18:54:16 77° WNW 18:59:37 10° SSW
USA 238 DEB 3.5 18:52:53 10° SW 18:59:29 86° NW 19:00:35 65° NNE
USA 238 3.5 18:52:58 10° SW 18:59:34 87° NW 19:00:39 66° NNE
Cosmos 158 Rocket 4.4 18:55:39 10° SW 19:00:30 55° WNW 19:00:46 54° NW
CZ-2C R/B 3.8 18:56:24 10° S 19:01:13 47° W 19:05:52 10° NNW
COSMO-SKYMED 1 4.4 19:00:19 19° NNW 19:02:27 29° WNW 19:06:11 10° SW
X-37B 3.8 19:01:08 10° W 19:01:44 14° W 19:01:44 14° W
Cosmos 1238 Rocket 4.4 19:00:51 10° NNW 19:04:38 39° W 19:09:10 10° SSW
Cosmos 1934 Rocket 4.1 19:00:54 10° NNW 19:07:16 74° W 19:13:31 10° S
CSL-04 Debris 4.3 19:09:14 71° W 19:09:14 71° W 19:14:42 10° NNW
USA 281 3.6 19:06:35 10° S 19:13:02 59° WSW 19:19:32 10° NNW
H-2A R/B 2.6 19:15:55 54° W 19:15:55 54° W 19:20:37 10° NNW
CZ-4 R/B 3.6 19:17:28 22° WNW 19:17:28 22° WNW 19:19:37 10° NW
USA 267 3.2 19:21:32 77° NNW 19:21:32 77° NNW 19:27:38 10° NW
Lacrosse 4 Rocket 4.2 19:23:04 10° SW 19:23:21 12° SW 19:23:21 12° SW
CENTAUR R/B 3.7 19:51:16 10° WSW 19:54:58 38° W 19:54:58 38° W
